Location: �terpigny
(49.8910°N, 2.9249°E)
Time: 12:10:13
(UTC+00:00)

NOSS 3-1 (C) - Pass Details

Date: 24 October 2021
Orbit: 717 x 1491 km, 63.4° (Epoch: 25 November)

Event Time Altitude Azimuth Distance (km) Brightness Sun altitude
Rises 18:11:58 0° 216° (SW) 3,199 6.8 -15.5°
Reaches altitude 10° 18:14:12 10° 215° (SW) 2,332 6.0 -15.9°
Maximum altitude 18:19:31 80° 129° (SE) 886 3.2 -16.7°
Enters shadow 18:25:06 14° 45° (NE) 2,480 5.2 -17.6°
